[[{"header":{"parameterUnit":"m.s-1","parameterCategory":1,"la1":30.2991,"la2":30.254,"lo1":-89.0895,"lo2":-89.0444,"dy":0.0017,"dx":0.0017,"nx":28,"ny":28,"refTime":"2023-10-20T03:00:00:Z","depth":0,"parameterNumber":2,"parameterNumberName":"U-component_of_WINDS"},"data":[0,0,0,0,0,0,0,0,0,0,0,0,0,0,0,0,0,0,0,0,0,0,0,0,0,0,0,0,0,0,0,0,0,0,0,0,0,0,0,0,0,0,0,0,0,0,0,0,0,0,0,0,0,0,0,0,0,0,3.5771,3.5772,0,3.5861,3.5862,3.5863,3.5827,3.5825,3.5823,3.5821,3.5913,3.5918,3.5922,0,0,0,0,0,0,0,0,0,0,0,0,0,3.5569,3.5573,3.5771,3.5772,3.5773,3.5861,3.5862,3.5863,3.5827,3.5825,3.5822,3.582,3.5912,3.5917,3.5922,0,0,0,0,0,0,0,0,0,0,0,0,0,3.5658,3.5574,3.5771,3.5766,3.5766,3.586,3.5862,3.5863,3.5828,3.5825,3.5821,3.5819,3.591,3.5917,3.5923,3.6028,0,0,3.5944,3.5946,0,0,0,0,0,0,0,0,3.5653,3.5665,3.5765,3.5766,3.5767,3.5829,3.5825,3.5918,3.5829,3.5805,3.5821,3.5817,3.5888,3.5896,3.592,3.6032,3.6036,3.5944,3.5948,3.5951,3.5953,0,0,0,0,0,0,0,3.5646,3.5661,3.5806,3.5767,3.5768,3.5759,3.5768,3.5842,3.5863,3.5806,3.5804,3.5815,3.5888,3.5914,3.5922,3.6037,3.5944,3.595,3.5954,3.5957,3.6239,3.6242,0,0,0,0,0,0,3.564,3.5656,3.5804,3.5809,3.5701,3.5766,3.5776,3.5813,3.5862,3.5867,3.5818,3.5813,3.5904,3.5914,3.5925,3.605,3.5951,3.5957,3.5961,3.6235,3.624,3.6243,0,0,0,0,0,0,3.5636,3.5654,3.58,3.5732,3.575,3.5772,3.5814,3.5816,3.5842,3.5871,3.5874,3.584,3.5902,3.5916,3.6002,3.6053,3.596,3.5966,3.6231,3.6237,3.6242,3.6301,0,0,0,0,0,0,3.563,3.5652,3.5692,3.5733,3.5754,3.5876,3.5817,3.582,3.5853,3.5848,3.5893,3.5897,3.59,3.5993,3.6009,3.606,3.5971,3.6227,3.6234,3.624,3.6295,3.6308,3.6319,0,0,0,0,0,3.5623,3.5705,3.5694,3.5712,3.5804,3.5878,3.589,3.5892,3.5858,3.5898,3.5916,3.5896,3.6045,3.6002,3.602,3.6074,3.6224,3.6232,3.6239,3.6289,3.6305,3.6318,0,0,0,0,0,0,3.567,3.5711,3.5699,3.5797,3.5834,3.5872,3.5923,3.5909,3.5958,3.5951,3.5951,3.5962,3.6051,3.6071,3.6022,3.6177,3.6129,3.6141,3.6161,3.6176,3.6188,3.6181,3.5977,0,0,0,0,0,3.5691,3.5748,3.5781,3.5865,3.5884,3.59,3.5933,3.5931,3.597,3.5986,3.6011,3.605,3.6105,3.6142,3.6195,3.6298,3.6307,3.6344,3.6356,3.6366,3.6376,3.6431,3.6448,3.6269,3.6269,3.6269,0,0,3.5737,3.5766,3.5802,3.5875,3.5904,3.5963,3.5914,3.5979,3.6022,3.5996,3.6079,3.6099,3.6142,3.6237,3.628,3.6257,3.6427,3.6376,3.6383,3.6388,3.6441,3.6458,3.6473,3.6275,3.6274,3.6273,0,0,3.5849,3.5877,3.5949,3.598,3.6024,3.6034,3.6052,3.6092,3.6104,3.6187,3.6169,3.6221,3.6317,3.6348,3.6377,3.6502,3.6485,3.6519,3.6582,3.6636,3.665,3.6663,3.6706,3.6722,3.6529,3.653,3.653,0,3.59,3.5987,3.5988,3.6055,3.6087,3.6066,3.6139,3.6168,3.6228,3.6251,3.6224,3.6343,3.6371,3.6473,3.6503,3.6528,3.6547,3.6514,3.6648,3.6661,3.6672,3.6714,3.6731,3.6533,3.6533,3.6533,3.6532,0,3.6047,3.6109,3.6162,3.6219,3.6258,3.6327,3.6338,3.6377,3.6373,3.6386,3.6471,3.6504,3.6563,3.6587,3.6583,3.6689,3.6672,3.6647,3.6598,3.6693,3.6732,3.6748,3.6539,3.6538,3.6536,3.6535,0,0,3.619,3.6248,3.6267,3.6293,3.6341,3.6388,3.6457,3.6514,3.6547,3.6589,3.6646,3.6728,3.6705,3.6738,3.6737,3.6785,3.6881,3.6754,3.6754,3.6775,3.6998,3.7016,3.7035,3.687,3.6873,3.6876,3.6994,0,3.6305,3.6425,3.6428,3.6537,3.6594,3.6575,3.6635,3.6671,3.6685,3.6736,3.6752,3.6809,3.6775,3.6794,3.6841,3.6859,3.6925,3.6851,3.6923,3.6926,3.6911,3.7055,3.7074,3.7184,3.701,3.7012,3.7014,0,3.6455,3.6502,3.6617,3.6656,3.668,3.6734,3.6786,3.6835,3.6875,3.6882,3.6919,3.6912,3.6982,3.6932,3.7028,3.6978,3.7007,3.7021,3.7026,3.7031,3.6975,3.7064,3.722,3.7236,3.7038,3.7036,3.7035,0,3.6547,3.6638,3.6719,3.6742,3.679,3.6828,3.685,3.6887,3.6922,3.6968,3.699,3.7044,3.7074,3.7116,3.7124,3.7087,3.722,3.7171,3.7228,3.7228,3.7256,3.7254,3.7417,3.7277,3.7277,3.7277,3.7276,0,3.6674,3.6745,3.676,3.681,3.6889,3.6892,3.697,3.6989,3.7023,3.7076,3.7064,3.7113,3.7121,3.7173,3.718,3.7258,3.7272,3.728,3.728,3.728,3.7279,3.7298,3.7291,3.7281,3.728,3.7279,3.7279,0,3.6789,3.6802,3.6888,3.6927,3.6939,3.6995,3.7028,3.7076,3.7089,3.7157,3.7173,3.7194,3.7254,3.7267,3.7338,3.7343,3.7436,3.743,3.7422,3.7421,3.7477,3.7471,3.7658,3.7682,3.7527,3.7529,3.753,0,3.6868,3.6922,3.6967,3.7002,3.7025,3.7081,3.7116,3.7122,3.7158,3.7209,3.725,3.7309,3.7357,3.7454,3.7476,3.7531,3.7526,3.7587,3.7534,3.7532,3.7525,3.7521,3.7526,3.7597,3.7599,3.76,3.7601,0,3.7008,3.7012,3.7063,3.7116,3.7158,3.72,3.724,3.7269,3.728,3.7322,3.7384,3.7421,3.7494,3.7553,3.7608,3.763,3.7618,3.7618,3.7634,3.7634,3.7626,3.763,3.7449,3.7614,3.7612,3.7611,3.7611,3.761,3.7107,3.7154,3.7192,3.7249,3.728,3.7318,3.7364,3.7384,3.7435,3.7495,3.7495,3.7562,3.7602,3.7674,3.7701,3.7754,3.7734,3.7757,3.7763,3.7768,3.7773,3.7619,3.7764,3.7763,3.7763,3.7763,3.7763,0,3.7245,3.7269,3.7321,3.7377,3.7422,3.7407,3.7451,3.7489,3.7548,3.7586,3.7633,3.7704,3.7761,3.7788,3.7844,3.7881,3.7877,3.7896,3.7892,3.7898,3.7788,3.7768,3.7898,3.7898,3.7898,3.7898,3.7898,3.7898,3.7321,3.74,3.7409,3.7502,3.7526,3.7591,3.7618,3.7653,3.7683,3.7762,3.7809,3.7827,3.786,3.7919,3.7971,3.7977,3.7998,3.802,3.8023,3.7919,3.7906,3.7892,3.7874,3.8024,3.8025,3.8129,3.813,3.8131]},{"header":{"parameterUnit":"m.s-1","parameterCategory":1,"la1":30.2991,"la2":30.254,"lo1":-89.0895,"lo2":-89.0444,"dy":0.0017,"dx":0.0017,"nx":28,"ny":28,"refTime":"2023-10-20T03:00:00:Z","depth":0,"parameterNumber":3,"parameterNumberName":"V-component_of_WINDS"},"data":[0,0,0,0,0,0,0,0,0,0,0,0,0,0,0,0,0,0,0,0,0,0,0,0,0,0,0,0,0,0,0,0,0,0,0,0,0,0,0,0,0,0,0,0,0,0,0,0,0,0,0,0,0,0,0,0,0,0,3.3107,3.3109,0,3.3231,3.3232,3.3234,3.3224,3.3222,3.322,3.3219,3.3342,3.3347,3.3352,0,0,0,0,0,0,0,0,0,0,0,0,0,3.2861,3.2865,3.3107,3.3109,3.311,3.3231,3.3232,3.3234,3.3224,3.3222,3.322,3.3218,3.334,3.3346,3.3352,0,0,0,0,0,0,0,0,0,0,0,0,0,3.2974,3.2867,3.3107,3.312,3.3123,3.323,3.3233,3.3235,3.3225,3.3222,3.3219,3.3217,3.3338,3.3346,3.3353,3.3455,0,0,3.3376,3.3379,0,0,0,0,0,0,0,0,3.2968,3.2983,3.3117,3.3119,3.3122,3.3209,3.3191,3.3308,3.3226,3.3186,3.3219,3.3215,3.33,3.331,3.334,3.3461,3.3466,3.3377,3.3381,3.3385,3.3387,0,0,0,0,0,0,0,3.296,3.2978,3.3156,3.3119,3.3122,3.3119,3.3132,3.3213,3.3257,3.3189,3.3189,3.3204,3.3301,3.3332,3.3342,3.3468,3.3377,3.3383,3.3388,3.3391,3.368,3.3683,0,0,0,0,0,0,3.2949,3.2971,3.3152,3.316,3.3037,3.3126,3.314,3.3184,3.3256,3.3264,3.3206,3.3203,3.3321,3.3334,3.3347,3.3472,3.3385,3.3392,3.3396,3.3676,3.368,3.3684,0,0,0,0,0,0,3.2944,3.2966,3.3147,3.3066,3.3089,3.3133,3.3182,3.3188,3.322,3.3269,3.3276,3.323,3.3319,3.3336,3.3429,3.3476,3.3395,3.3402,3.3673,3.3678,3.3682,3.3722,0,0,0,0,0,0,3.2937,3.2964,3.3003,3.3067,3.3093,3.3228,3.3185,3.3193,3.3233,3.323,3.3294,3.3301,3.3318,3.3417,3.3436,3.3485,3.3408,3.3669,3.3675,3.368,3.3716,3.3727,3.3737,0,0,0,0,0,3.2928,3.3009,3.3006,3.3027,3.3144,3.3231,3.3246,3.3265,3.3237,3.3277,3.3309,3.3299,3.3467,3.3427,3.3448,3.3499,3.3666,3.3673,3.368,3.3712,3.3725,3.3736,0,0,0,0,0,0,3.2949,3.3017,3.3014,3.3118,3.3169,3.3229,3.328,3.3278,3.3337,3.3331,3.3351,3.3366,3.3459,3.3488,3.3442,3.3602,3.3563,3.3574,3.358,3.3593,3.3603,3.3594,3.3414,0,0,0,0,0,3.2965,3.3031,3.3087,3.3173,3.3199,3.3235,3.3274,3.3284,3.3337,3.3358,3.3396,3.3447,3.3512,3.3554,3.3615,3.372,3.3734,3.3766,3.3776,3.3784,3.3794,3.3853,3.3868,3.3707,3.3707,3.3707,0,0,3.3,3.3046,3.3086,3.3178,3.3219,3.3286,3.3253,3.3325,3.3376,3.3369,3.3459,3.3489,3.3547,3.3646,3.3692,3.3674,3.3842,3.3793,3.3799,3.3805,3.3862,3.3877,3.389,3.3712,3.3711,3.371,0,0,3.3099,3.314,3.3216,3.3258,3.332,3.3344,3.3363,3.3424,3.3444,3.3535,3.3532,3.3591,3.3701,3.3743,3.3779,3.3894,3.3888,3.3913,3.3966,3.4023,3.4035,3.4047,3.4089,3.4104,3.3923,3.3923,3.3923,0,3.3134,3.3236,3.3256,3.333,3.337,3.3368,3.3446,3.3485,3.3564,3.3592,3.357,3.371,3.3749,3.3858,3.3887,3.3915,3.3937,3.3906,3.4032,3.4044,3.4055,3.4095,3.4111,3.3926,3.3925,3.3925,3.3925,0,3.3277,3.3348,3.3402,3.348,3.3527,3.3602,3.3633,3.3677,3.3684,3.371,3.3803,3.3849,3.3921,3.3948,3.3954,3.4059,3.4045,3.4028,3.3989,3.4072,3.4111,3.4126,3.393,3.3929,3.3928,3.3927,0,0,3.3392,3.348,3.35,3.3536,3.3605,3.366,3.3735,3.3807,3.3845,3.3899,3.3963,3.4057,3.4041,3.4082,3.4093,3.4142,3.4232,3.4119,3.412,3.4139,3.4351,3.4365,3.4383,3.4228,3.4231,3.4233,3.4347,0,3.3498,3.3632,3.3652,3.3771,3.3837,3.3836,3.3902,3.3951,3.3977,3.4036,3.4064,3.4131,3.4105,3.413,3.4179,3.4211,3.4275,3.4202,3.4287,3.429,3.4274,3.4403,3.4417,3.4522,3.4362,3.4364,3.4366,0,3.364,3.37,3.3825,3.3887,3.3915,3.3974,3.4041,3.4098,3.4154,3.4169,3.4215,3.422,3.4297,3.4255,3.4362,3.4312,3.4348,3.4368,3.4373,3.4382,3.4334,3.4416,3.4556,3.4572,3.439,3.4388,3.4386,0,3.3712,3.3824,3.3914,3.3945,3.4018,3.4059,3.4092,3.4145,3.4187,3.4245,3.4273,3.4339,3.4376,3.4427,3.4449,3.4416,3.4555,3.4514,3.457,3.457,3.46,3.4598,3.4749,3.4622,3.4621,3.4621,3.4621,0,3.3829,3.3906,3.3948,3.4003,3.409,3.4111,3.4196,3.4227,3.4274,3.4335,3.4338,3.4394,3.442,3.4481,3.4499,3.4586,3.4601,3.4616,3.462,3.4617,3.4615,3.4641,3.4635,3.4625,3.4624,3.4624,3.4623,0,3.3925,3.3956,3.4054,3.4116,3.4133,3.4194,3.4247,3.4301,3.4326,3.4404,3.4423,3.4463,3.4535,3.4563,3.465,3.4662,3.4762,3.4759,3.4744,3.4745,3.48,3.4795,3.4973,3.4998,3.4854,3.4855,3.4856,0,3.3998,3.4057,3.4126,3.4168,3.4202,3.4269,3.4313,3.4336,3.4381,3.445,3.4495,3.4567,3.4626,3.4741,3.4777,3.4844,3.4844,3.4902,3.4854,3.4849,3.4846,3.4843,3.4849,3.4911,3.4912,3.4914,3.4915,0,3.4124,3.4137,3.4201,3.427,3.4322,3.4378,3.4431,3.4465,3.4497,3.4547,3.4622,3.4667,3.4757,3.4829,3.4898,3.493,3.4928,3.4929,3.4946,3.4944,3.4933,3.4941,3.4769,3.4925,3.4924,3.4923,3.4923,3.4922,3.4212,3.4265,3.4323,3.4393,3.4437,3.4487,3.4541,3.4574,3.4637,3.4714,3.4723,3.4803,3.4858,3.4951,3.4986,3.5048,3.5033,3.5057,3.5063,3.5069,3.5073,3.4922,3.506,3.506,3.506,3.506,3.506,0,3.434,3.4377,3.4442,3.4518,3.4574,3.4568,3.4627,3.4674,3.4745,3.4797,3.4855,3.4941,3.5011,3.5053,3.5123,3.5165,3.5166,3.5183,3.518,3.5188,3.5083,3.5062,3.5181,3.5181,3.5181,3.5181,3.5181,3.5181,3.4413,3.4503,3.4523,3.4635,3.4672,3.4751,3.4786,3.4833,3.4874,3.4971,3.5029,3.5057,3.5105,3.5179,3.5242,3.5253,3.5279,3.5297,3.5306,3.5208,3.5195,3.5183,3.5164,3.5302,3.5302,3.5407,3.5408,3.5408]}]]